User: anonymous   Login
Location: New Frontier Mobile Home Park
(32.8448°N, 116.9675°W)
Time: 13:50:44
(UTC+00:00)
Language:

H-2A R/B - Orbit

View from above orbital plane
View from above orbital plane
View from above satellite
View from above satellite

Ground track
Ground track

The orbit data is extracted from the following two-line orbital elements,

1 27601U 02056E   20262.87524279 +.00000054 +00000-0 +34308-4 0  9996
2 27601 098.2195 293.8089 0072089 000.4258 042.8177 14.31968457928068
Epoch (UTC): 18 September 2020 21:00:20
Eccentricity: 0.0072089
inclination: 98.2195°
perigee height: 733 km
apogee height: 837 km
right ascension of ascending node: 293.8089°
argument of perigee: 0.4258°
revolutions per day: 14.31968457
mean anomaly at epoch: 42.8177°
orbit number at epoch: 92806

The dashed part of the orbit path shows where the satellite is in the earth's shadow,  

DLR